Retour au catalogue

SL-8 DEB *

ActifLEO
NORAD 15528·DEBRIS·🇷🇺 Russia

Lancé Nov 11, 1982 depuis Plesetsk Cosmodrome

Loading…

Prochains Passages (prochaines 24 heures)

TLE

FraisSource: Space-Track

Époque: Sep 14, 2026, 11:21 UTC

1 15528U 82109D   26257.47345325  .00001379  00000-0  26044-3 0  9995
2 15528  74.0154 261.9698 0011103 320.9265 191.2264 14.65430697230182

Suivez SL-8 DEB * en temps réel avec AllMySat

Download on the App Store